KE8WMS Weather Reports


time (UTC)temp
C
wind
direction
speed
KPH
gust
KPH
rain 1hr
cm
rain 24hr
cm
rain mn
cm
humidity
%
barometer
mb
20260506112459 7 218 0.0 0.0 0.00 0.51 0.51 99 1006.0
20260506111956 7 218 0.0 0.0 0.00 0.51 0.51 99 1005.8
20260506111454 7 220 0.0 0.0 0.00 0.51 0.51 99 1005.8
20260506110951 7 220 0.0 0.0 0.00 0.51 0.51 99 1005.6
20260506110449 7 223 0.0 0.0 0.00 0.51 0.51 99 1005.7
20260506105945 7 221 0.0 0.0 0.00 0.51 0.51 99 1005.2
20260506105442 7 216 0.0 0.0 0.00 0.51 0.51 99 1004.9
20260506104939 7 225 0.0 0.0 0.00 0.51 0.51 99 1005.2
20260506104437 7 228 0.0 0.0 0.00 0.51 0.51 99 1005.3
20260506103935 7 227 0.0 0.0 0.00 0.51 0.51 99 1004.9
20260506103432 7 223 0.0 0.0 0.00 0.51 0.51 99 1004.8
20260506102929 7 232 0.0 1.6 0.00 0.51 0.51 99 1005.3
20260506102427 7 229 0.0 1.6 0.00 0.51 0.51 99 1005.6
20260506101924 7 238 1.6 1.6 0.00 0.51 0.51 99 1005.3
20260506101420 7 221 0.0 0.0 0.00 0.51 0.51 99 1005.6
20260506100918 7 233 0.0 0.0 0.00 0.51 0.51 99 1005.2
20260506100416 7 239 0.0 1.6 0.00 0.51 0.51 99 1004.9
20260506095914 7 249 0.0 1.6 0.00 0.51 0.51 99 1004.9
20260506095412 7 233 0.0 0.0 0.00 0.51 0.51 99 1004.7
20260506094908 6 221 0.0 0.0 0.00 0.51 0.51 99 1004.6
20260506094407 7 220 0.0 0.0 0.00 0.51 0.51 99 1004.8
20260506093904 7 221 0.0 0.0 0.00 0.51 0.51 99 1004.8
20260506093401 7 220 0.0 0.0 0.00 0.51 0.51 99 1005.2
20260506092859 7 224 0.0 0.0 0.00 0.51 0.51 99 1005.2
20260506092357 6 227 0.0 0.0 0.00 0.51 0.51 99 1005.4
20260506091853 7 227 0.0 0.0 0.18 0.51 0.51 99 1005.6
20260506091351 7 222 0.0 0.0 0.18 0.51 0.51 99 1005.8
20260506090848 7 225 0.0 0.0 0.00 0.48 0.48 99 1005.6
20260506090346 7 226 0.0 0.0 0.00 0.48 0.48 99 1005.5
20260506085842 7 234 0.0 0.0 0.00 0.48 0.48 99 1005.5
20260506085338 7 231 0.0 1.6 0.00 0.48 0.48 99 1005.4
20260506084835 7 219 0.0 0.0 0.00 0.48 0.48 99 1005.3
20260506084332 7 226 0.0 0.0 0.00 0.48 0.48 99 1005.0
20260506083829 7 232 0.0 1.6 0.00 0.48 0.48 99 1004.9
20260506083326 7 250 1.6 1.6 0.13 0.48 0.48 99 1005.1
20260506082824 7 209 0.0 0.0 0.13 0.48 0.48 99 1004.9
20260506082320 7 254 1.6 1.6 0.18 0.46 0.46 99 1005.0
20260506081816 7 51 4.8 4.8 0.36 0.46 0.46 99 1004.9
20260506081314 7 223 1.6 1.6 0.18 0.43 0.43 99 1005.3
20260506080812 7 280 1.6 3.2 0.30 0.41 0.41 99 1005.2
20260506080308 7 237 1.6 1.6 0.18 0.38 0.38 99 1005.4
20260506073252 7 223 0.0 0.0 0.13 0.30 0.30 99 1005.2
20260506072749 7 275 3.2 3.2 0.18 0.28 0.28 99 1005.1
20260506072246 7 227 1.6 1.6 0.30 0.28 0.28 99 1004.9
20260506071744 7 226 0.0 0.0 0.30 0.25 0.25 99 1005.0
20260506071241 7 215 0.0 0.0 0.18 0.23 0.23 99 1004.9
20260506070738 7 230 0.0 0.0 0.00 0.20 0.20 99 1004.9
20260506070235 7 230 0.0 0.0 0.13 0.20 0.20 99 1005.0
20260506062212 7 236 0.0 1.6 0.00 0.15 0.15 99 1005.0
20260506061708 7 217 0.0 0.0 0.00 0.15 0.15 99 1005.2
20260506061206 7 217 0.0 0.0 0.00 0.15 0.15 99 1005.1
20260506060704 7 217 0.0 0.0 0.00 0.15 0.15 99 1005.1
20260506060200 7 217 0.0 0.0 0.13 0.15 0.15 99 1005.0
20260506051133 7 226 0.0 0.0 0.18 0.10 0.10 99 1005.1
20260506050631 7 225 0.0 0.0 0.00 0.08 0.08 99 1005.2
20260506050128 7 217 0.0 0.0 0.13 0.08 0.08 99 1005.1
20260506045121 7 217 0.0 0.0 0.13 0.08 0.08 99 1005.1
20260506044619 7 221 0.0 0.0 0.00 0.05 0.05 99 1005.4
20260506044116 7 226 0.0 0.0 0.18 0.05 0.05 99 1005.4
20260506043613 7 223 0.0 0.0 0.18 0.05 0.05 99 1005.4
20260506043111 7 228 0.0 0.0 0.00 0.03 0.03 99 1005.4
20260506042610 7 227 0.0 0.0 0.00 0.03 0.03 99 1005.5
20260506042108 7 229 0.0 0.0 0.00 0.03 0.03 99 1005.3
20260506041606 8 225 0.0 0.0 0.13 0.03 0.03 99 1005.3
20260506041102 7 219 0.0 0.0 0.13 0.03 0.03 99 1005.6
20260506040600 7 218 0.0 0.0 0.00 0.00 0.00 99 1005.8
20260506040056 7 224 1.6 1.6 0.18 0.00 0.00 99 1005.6
20260506035553 7 221 0.0 0.0 0.18 2.95 2.95 99 1005.7
20260506035050 7 217 0.0 0.0 0.13 2.92 2.92 99 1005.9
20260506034547 8 224 0.0 0.0 0.30 2.92 2.92 99 1006.2
20260506034044 8 223 0.0 0.0 0.30 2.90 2.90 99 1006.0
20260506033542 8 216 0.0 0.0 0.13 2.87 2.87 99 1006.1
20260506033038 8 215 0.0 0.0 0.30 2.84 2.84 99 1006.0
20260506032536 8 222 0.0 0.0 0.48 2.84 2.84 99 1006.0
20260506032032 8 221 0.0 0.0 0.18 2.79 2.79 99 1006.0
20260506031530 8 226 0.0 0.0 0.13 2.77 2.77 99 1005.9
20260506031027 8 238 0.0 1.6 0.30 2.77 2.77 99 1005.8
20260506030525 8 305 3.2 3.2 0.36 2.74 2.74 99 1005.9
20260506030022 8 221 0.0 0.0 0.48 2.72 2.72 99 1006.0
20260506025519 8 220 0.0 0.0 0.43 2.69 2.69 99 1005.9
20260506025015 8 248 1.6 1.6 0.43 2.64 2.64 99 1005.8
20260506024512 8 227 0.0 0.0 0.48 2.62 2.62 99 1005.9
20260505235345 9 257 1.6 1.6 0.18 1.85 1.85 99 1003.9
20260505234842 9 257 1.6 1.6 0.18 1.85 1.85 99 1003.9
20260505234340 9 257 1.6 1.6 0.18 1.85 1.85 99 1003.9
20260505233836 9 227 1.6 1.6 0.18 1.85 1.85 99 1004.1
20260505233335 9 227 0.0 0.0 0.00 1.83 1.83 99 1004.4
20260505232832 9 21 3.2 3.2 0.00 1.83 1.83 99 1004.1
20260505232329 9 224 0.0 0.0 0.00 1.83 1.83 99 1004.3
20260505231826 9 284 1.6 1.6 0.13 1.83 1.83 99 1004.3
20260505231324 9 226 0.0 1.6 0.13 1.83 1.83 99 1004.7
20260505230822 9 223 0.0 0.0 0.18 1.80 1.80 99 1004.6
20260505230318 9 250 3.2 3.2 0.36 1.80 1.80 99 1004.4
20260505225815 9 276 0.0 1.6 0.18 1.78 1.78 99 1004.7
20260505225312 9 246 1.6 1.6 0.30 1.75 1.75 99 1004.9
20260505224807 9 49 3.2 4.8 0.89 1.73 1.73 99 1004.8
20260505224306 10 285 3.2 3.2 0.89 1.68 1.68 99 1004.7
20260505223802 9 226 0.0 0.0 0.30 1.57 1.57 99 1004.2
20260505223259 9 267 1.6 1.6 0.18 1.52 1.52 99 1004.2
20260505222755 9 311 1.6 3.2 0.30 1.52 1.52 99 1004.1
20260505222251 9 247 1.6 1.6 0.30 1.50 1.50 99 1004.4
20260505221748 9 230 0.0 1.6 0.66 1.47 1.47 99 1004.3
20260505221245 9 238 0.0 1.6 0.79 1.45 1.45 99 1003.9
20260505220742 10 205 1.6 3.2 0.30 1.37 1.37 99 1003.9
20260505220239 9 224 0.0 1.6 0.30 1.32 1.32 99 1003.8
20260505215737 9 204 1.6 1.6 0.43 1.32 1.32 99 1004.0
20260505215235 10 359 3.2 3.2 0.61 1.30 1.30 99 1003.8
20260505214733 10 21 3.2 4.8 0.66 1.24 1.24 99 1003.7
20260505214230 10 197 1.6 1.6 0.48 1.17 1.17 99 1004.0
20260505213727 10 293 3.2 4.8 0.71 1.14 1.14 99 1003.8
20260505213224 10 244 1.6 3.2 0.61 1.09 1.09 99 1003.8
20260505212720 10 293 3.2 3.2 0.30 1.02 1.02 99 1003.9
20260505212218 10 297 1.6 3.2 0.30 0.99 0.99 99 1003.8
20260505211714 10 256 1.6 1.6 0.18 0.97 0.97 99 1003.6
20260505211212 10 228 1.6 1.6 0.30 0.94 0.94 99 1003.9
20260505210708 10 243 1.6 1.6 0.30 0.91 0.91 99 1003.6
20260505210205 10 215 1.6 1.6 0.48 0.89 0.89 99 1003.6
20260505205703 10 319 3.2 3.2 0.66 0.86 0.86 98 1003.5
20260505205200 10 69 3.2 4.8 0.43 0.81 0.81 98 1004.0
20260505204657 11 17 4.8 4.8 0.43 0.76 0.76 98 1004.0
20260505204155 12 336 6.4 8.0 0.61 0.74 0.74 98 1003.7
20260505203652 13 338 3.2 3.2 0.61 0.69 0.69 98 1003.6
20260505203148 13 250 1.6 1.6 0.48 0.64 0.64 98 1003.6
20260505202644 13 228 1.6 1.6 0.30 0.58 0.58 98 1003.8
20260505202140 13 237 1.6 3.2 0.30 0.56 0.56 98 1003.5
20260505201637 13 229 0.0 1.6 0.36 0.53 0.53 98 1003.6
20260505201135 13 218 0.0 0.0 0.30 0.51 0.51 97 1003.6
20260505200633 13 221 0.0 0.0 0.43 0.48 0.48 97 1003.4
20260505200129 13 220 0.0 0.0 0.48 0.46 0.46 97 1003.5
20260505195625 13 224 0.0 0.0 0.30 0.41 0.41 97 1003.5
20260505195123 13 227 0.0 0.0 0.30 0.38 0.38 96 1003.5
20260505194620 13 203 1.6 1.6 0.48 0.36 0.36 96 1003.7
20260505194116 13 224 0.0 0.0 0.61 0.33 0.33 96 1003.8
20260505193613 13 242 1.6 3.2 0.79 0.28 0.28 95 1003.8
20260505193110 14 225 0.0 0.0 0.66 0.20 0.20 94 1004.0
20260505192609 14 216 0.0 0.0 0.18 0.13 0.13 94 1003.9
20260505192105 14 231 1.6 1.6 0.13 0.10 0.10 93 1003.8
20260505191604 14 231 0.0 0.0 0.30 0.10 0.10 92 1003.8
20260505191101 14 218 0.0 0.0 0.30 0.08 0.08 91 1003.6
20260505190556 14 224 0.0 0.0 0.30 0.05 0.05 90 1003.6
20260505190052 15 224 0.0 0.0 0.18 0.03 0.03 88 1003.8
20260505185549 15 228 1.6 1.6 0.00 0.00 0.00 86 1003.7
20260505185045 15 274 1.6 1.6 0.00 0.00 0.00 83 1003.6
20260505184542 16 164 3.2 4.8 0.00 0.00 0.00 81 1003.8
20260505184039 16 247 3.2 3.2 0.00 0.00 0.00 79 1003.6
20260505183535 16 157 4.8 8.0 0.00 0.00 0.00 77 1003.5
20260505183033 17 185 1.6 3.2 0.00 0.00 0.00 76 1003.5
20260505182529 17 227 6.4 11.3 0.00 0.00 0.00 75 1003.6
20260505182026 17 227 8.0 9.7 0.00 0.00 0.00 75 1003.8
20260505181522 17 243 3.2 4.8 0.00 0.00 0.00 75 1003.7
20260505181020 17 214 0.0 1.6 0.00 0.00 0.00 74 1003.6
20260505180515 17 217 4.8 8.0 0.00 0.00 0.00 74 1003.9
20260505180014 18 152 1.6 3.2 0.00 0.00 0.00 73 1003.7
20260505175508 18 167 6.4 8.0 0.00 0.00 0.00 73 1003.8
20260505175006 17 251 4.8 4.8 0.00 0.00 0.00 74 1003.7
20260505174503 17 222 1.6 1.6 0.00 0.00 0.00 74 1003.4
20260505173959 17 220 3.2 4.8 0.00 0.00 0.00 72 1003.5
20260505173455 17 166 4.8 8.0 0.00 0.00 0.00 73 1003.6
20260505172953 17 195 1.6 1.6 0.00 0.00 0.00 74 1003.5
20260505172451 17 236 4.8 4.8 0.00 0.00 0.00 74 1003.6
20260505171950 17 230 1.6 3.2 0.00 0.00 0.00 73 1003.6
20260505171447 17 231 6.4 9.7 0.00 0.00 0.00 74 1003.6
20260505170944 17 207 1.6 3.2 0.00 0.00 0.00 74 1003.6
20260505170440 17 229 6.4 9.7 0.00 0.00 0.00 73 1003.8
20260505165936 17 256 1.6 1.6 0.00 0.00 0.00 74 1003.4
20260505165432 17 224 0.0 1.6 0.00 0.00 0.00 75 1003.3
20260505164927 17 245 3.2 3.2 0.00 0.00 0.00 75 1003.5
20260505164424 17 223 0.0 1.6 0.00 0.00 0.00 75 1003.6
20260505163922 17 285 3.2 4.8 0.00 0.00 0.00 74 1003.5
20260505163421 17 355 1.6 4.8 0.00 0.00 0.00 74 1003.4
20260505162920 17 223 1.6 3.2 0.00 0.00 0.00 73 1003.5
20260505162415 18 230 1.6 3.2 0.00 0.00 0.00 71 1003.5
20260505161912 18 220 1.6 1.6 0.00 0.00 0.00 67 1003.6
20260505161409 18 225 1.6 3.2 0.00 0.00 0.00 66 1003.5
20260505160906 19 221 3.2 3.2 0.00 0.00 0.00 66 1003.3
20260505160404 19 214 3.2 4.8 0.00 0.00 0.00 66 1003.4
20260505153343 20 322 6.4 11.3 0.00 0.00 0.00 63 1002.6
20260505152841 20 245 6.4 11.3 0.00 0.00 0.00 63 1002.6
20260505152338 20 269 6.4 9.7 0.00 0.00 0.00 63 1002.1
20260505151837 20 237 4.8 8.0 0.00 0.00 0.00 64 1002.1
20260505151334 20 207 6.4 8.0 0.00 0.00 0.00 62 1001.9
20260505150831 20 186 6.4 8.0 0.00 0.00 0.00 63 1001.9
20260505150328 20 181 4.8 9.7 0.00 0.00 0.00 64 1002.0
20260505140252 18 268 4.8 8.0 0.00 0.00 0.00 68 1002.0
20260505130216 17 211 4.8 8.0 0.00 0.00 0.00 74 1001.8
20260505124706 17 160 9.7 14.5 0.00 0.00 0.00 73 1001.8
20260505124203 16 216 9.7 14.5 0.00 0.00 0.00 73 1001.6
20260505123659 16 209 4.8 4.8 0.00 0.00 0.00 73 1001.7
20260505123156 16 228 6.4 9.7 0.00 0.00 0.00 72 1001.4
20260505122653 16 213 1.6 1.6 0.00 0.00 0.00 73 1001.6
20260505122149 16 152 8.0 11.3 0.00 0.00 0.00 72 1001.7
20260505121646 16 211 8.0 12.9 0.00 0.00 0.00 72 1001.6
20260505121143 16 207 4.8 4.8 0.00 0.00 0.00 72 1001.3
20260505120639 16 204 3.2 3.2 0.00 0.00 0.00 72 1001.1
20260505120135 16 176 1.6 3.2 0.00 0.00 0.00 72 1000.9
20260505115629 16 167 4.8 8.0 0.00 0.00 0.00 72 1000.6
20260505115127 16 207 3.2 3.2 0.00 0.00 0.00 72 1000.3
20260505114624 17 199 3.2 4.8 0.00 0.00 0.00 71 1000.5
20260505114120 17 186 4.8 8.0 0.00 0.00 0.00 71 1000.0
20260505113617 17 245 9.7 11.3 0.00 0.00 0.00 69 1000.4
20260505113114 17 236 6.4 9.7 0.00 0.00 0.00 69 1000.3